Terminal Aerodrome Forecast
Issued by NWS

Current Version | Previous Version | Graphics & Text | Print | Product List | Glossary On
Versions: 1 2 3 4 5 6 7 8 9 10 11 12 13 14 15 16 17 18 19 20 21 22 23 24 25 26 27 28 29 30 31 32 33 34 35 36 37 38 39
000
FTUS41 KRNK 300400 AAA
TAFLWB
TAF AMD
KLWB 300400Z 3004/3024 VRB04KT 5SM -SHSNPL BR BKN013 OVC023
     FM300500 24008G16KT 4SM -SHSN BR BKN009 OVC012
      TEMPO 3006/3010 1SM -SHSN OVC005
     FM301400 28017G27KT P6SM -SHSN OVC015
     FM301800 29018G28KT P6SM -SHSN OVC018
     FM302200 30008G16KT P6SM BKN023=

USA.gov is the U.S. government's official web portal to all federal, state and local government web resources and services.